| time (UTC) | temp C | wind direction | speed KPH | gust KPH | rain 1hr cm | rain 24hr cm | rain mn cm | humidity % | barometer mb |
| 20260504000539 | 12 | 240 | 3.2 | 11.3 | 0.00 | 0.03 | 0.03 | 67 | 1012.8 |
| 20260504000058 | 12 | 145 | 1.6 | 12.9 | 0.00 | 0.03 | 0.03 | 68 | 1012.8 |
| 20260503235547 | 12 | 238 | 3.2 | 12.9 | 0.00 | 0.03 | 0.03 | 68 | 1012.8 |
| 20260503235040 | 12 | 200 | 3.2 | 11.3 | 0.00 | 0.03 | 0.03 | 68 | 1012.8 |
| 20260503234551 | 12 | 0 | 1.6 | 8.0 | 0.00 | 0.03 | 0.03 | 74 | 1012.7 |
| 20260503234041 | 12 | 255 | 1.6 | 9.7 | 0.00 | 0.03 | 0.03 | 73 | 1012.9 |
| 20260503233541 | 12 | 202 | 3.2 | 9.7 | 0.00 | 0.03 | 0.03 | 69 | 1012.9 |
| 20260503233059 | 12 | 202 | 3.2 | 8.0 | 0.00 | 0.03 | 0.03 | 69 | 1012.9 |
| 20260503232542 | 12 | 219 | 1.6 | 8.0 | 0.00 | 0.03 | 0.03 | 70 | 1012.9 |
| 20260503232040 | 12 | 241 | 1.6 | 8.0 | 0.00 | 0.03 | 0.03 | 70 | 1012.9 |
| 20260503231550 | 12 | 191 | 1.6 | 8.0 | 0.00 | 0.03 | 0.03 | 70 | 1012.9 |
| 20260503231041 | 12 | 0 | 0.0 | 4.8 | 0.00 | 0.03 | 0.03 | 76 | 1013.1 |
| 20260503230544 | 12 | 0 | 0.0 | 4.8 | 0.00 | 0.03 | 0.03 | 71 | 1013.0 |
| 20260503230051 | 12 | 0 | 1.6 | 9.7 | 0.00 | 0.03 | 0.03 | 73 | 1012.9 |
| 20260503225546 | 11 | 0 | 0.0 | 9.7 | 0.00 | 0.03 | 0.03 | 74 | 1013.0 |
| 20260503225043 | 11 | 88 | 1.6 | 8.0 | 0.00 | 0.03 | 0.03 | 73 | 1013.2 |
| 20260503224547 | 11 | 198 | 3.2 | 9.7 | 0.00 | 0.03 | 0.03 | 74 | 1013.1 |
| 20260503224043 | 11 | 219 | 3.2 | 9.7 | 0.00 | 0.03 | 0.03 | 75 | 1013.3 |
| 20260503223543 | 11 | 221 | 0.0 | 9.7 | 0.00 | 0.03 | 0.03 | 77 | 1013.1 |
| 20260503223050 | 11 | 210 | 3.2 | 9.7 | 0.00 | 0.03 | 0.03 | 77 | 1013.2 |
| 20260503222544 | 11 | 203 | 3.2 | 12.9 | 0.00 | 0.03 | 0.03 | 78 | 1013.2 |
| 20260503221733 | 11 | 188 | 4.8 | 11.3 | 0.00 | 0.03 | 0.03 | 78 | 1013.2 |
| 20260503221041 | 11 | 209 | 1.6 | 9.7 | 0.00 | 0.03 | 0.03 | 80 | 1013.2 |
| 20260503220545 | 11 | 207 | 1.6 | 9.7 | 0.00 | 0.03 | 0.03 | 79 | 1013.2 |
| 20260503220057 | 11 | 213 | 4.8 | 9.7 | 0.00 | 0.03 | 0.03 | 79 | 1013.2 |
| 20260503215545 | 11 | 211 | 0.0 | 6.4 | 0.00 | 0.03 | 0.03 | 80 | 1013.3 |
| 20260503215040 | 11 | 0 | 1.6 | 8.0 | 0.00 | 0.03 | 0.03 | 79 | 1013.2 |
| 20260503214551 | 11 | 201 | 3.2 | 8.0 | 0.00 | 0.03 | 0.03 | 78 | 1013.3 |
| 20260503214044 | 11 | 204 | 3.2 | 8.0 | 0.00 | 0.03 | 0.03 | 77 | 1013.2 |
| 20260503213548 | 11 | 0 | 1.6 | 6.4 | 0.00 | 0.03 | 0.03 | 77 | 1013.2 |
| 20260503213050 | 11 | 225 | 3.2 | 8.0 | 0.00 | 0.03 | 0.03 | 76 | 1013.3 |
| 20260503212544 | 11 | 196 | 1.6 | 8.0 | 0.00 | 0.03 | 0.03 | 74 | 1013.2 |
| 20260503212043 | 12 | 225 | 3.2 | 8.0 | 0.00 | 0.03 | 0.03 | 74 | 1013.1 |
| 20260503211549 | 12 | 215 | 3.2 | 8.0 | 0.00 | 0.03 | 0.03 | 73 | 1013.1 |
| 20260503211043 | 11 | 180 | 1.6 | 8.0 | 0.00 | 0.03 | 0.03 | 74 | 1013.0 |
| 20260503210544 | 11 | 0 | 3.2 | 8.0 | 0.00 | 0.03 | 0.03 | 75 | 1013.1 |
| 20260503210055 | 11 | 213 | 1.6 | 6.4 | 0.00 | 0.03 | 0.03 | 75 | 1013.1 |
| 20260503205544 | 11 | 0 | 0.0 | 8.0 | 0.00 | 0.03 | 0.03 | 78 | 1013.0 |
| 20260503205043 | 11 | 182 | 1.6 | 8.0 | 0.00 | 0.03 | 0.03 | 77 | 1013.1 |
| 20260503204602 | 11 | 108 | 1.6 | 6.4 | 0.00 | 0.03 | 0.03 | 79 | 1013.1 |
| 20260503204046 | 11 | 0 | 0.0 | 6.4 | 0.00 | 0.03 | 0.03 | 80 | 1013.1 |
| 20260503203543 | 11 | 0 | 0.0 | 6.4 | 0.00 | 0.03 | 0.03 | 79 | 1013.1 |
| 20260503203059 | 11 | 205 | 0.0 | 3.2 | 0.00 | 0.03 | 0.03 | 83 | 1013.1 |
| 20260503202540 | 11 | 0 | 0.0 | 3.2 | 0.00 | 0.03 | 0.03 | 82 | 1013.2 |
| 20260503202040 | 11 | 232 | 0.0 | 8.0 | 0.00 | 0.03 | 0.03 | 80 | 1013.2 |
| 20260503201549 | 11 | 227 | 0.0 | 8.0 | 0.00 | 0.03 | 0.03 | 80 | 1013.3 |
| 20260503201045 | 11 | 0 | 0.0 | 4.8 | 0.00 | 0.03 | 0.03 | 80 | 1013.2 |
| 20260503200544 | 11 | 201 | 0.0 | 4.8 | 0.00 | 0.03 | 0.03 | 79 | 1013.1 |
| 20260503200053 | 11 | 212 | 0.0 | 3.2 | 0.00 | 0.03 | 0.03 | 79 | 1013.2 |
| 20260503195545 | 11 | 132 | 0.0 | 4.8 | 0.00 | 0.03 | 0.03 | 81 | 1013.2 |
| 20260503195044 | 11 | 0 | 0.0 | 4.8 | 0.00 | 0.03 | 0.03 | 80 | 1013.2 |
| 20260503194605 | 11 | 0 | 0.0 | 4.8 | 0.00 | 0.03 | 0.03 | 80 | 1013.3 |
| 20260503194044 | 11 | 132 | 0.0 | 4.8 | 0.00 | 0.03 | 0.03 | 82 | 1013.2 |
| 20260503193544 | 11 | 0 | 0.0 | 1.6 | 0.00 | 0.03 | 0.03 | 82 | 1013.3 |
| 20260503193051 | 11 | 0 | 0.0 | 3.2 | 0.00 | 0.03 | 0.03 | 80 | 1013.2 |
| 20260503192543 | 11 | 0 | 0.0 | 3.2 | 0.00 | 0.03 | 0.03 | 81 | 1013.2 |
| 20260503192043 | 11 | 101 | 0.0 | 4.8 | 0.00 | 0.03 | 0.03 | 82 | 1013.2 |
| 20260503191554 | 11 | 0 | 0.0 | 4.8 | 0.00 | 0.03 | 0.03 | 82 | 1013.3 |
| 20260503191043 | 11 | 101 | 0.0 | 4.8 | 0.00 | 0.03 | 0.03 | 82 | 1013.3 |
| 20260503190543 | 11 | 0 | 0.0 | 0.0 | 0.00 | 0.03 | 0.03 | 83 | 1013.3 |
| 20260503190059 | 10 | 0 | 0.0 | 0.0 | 0.00 | 0.03 | 0.03 | 82 | 1013.3 |
| 20260503185545 | 10 | 0 | 0.0 | 0.0 | 0.00 | 0.03 | 0.03 | 82 | 1013.3 |
| 20260503185043 | 10 | 0 | 0.0 | 0.0 | 0.00 | 0.03 | 0.03 | 83 | 1013.3 |
| 20260503184600 | 10 | 0 | 0.0 | 0.0 | 0.00 | 0.03 | 0.03 | 84 | 1013.2 |
| 20260503184044 | 10 | 0 | 0.0 | 3.2 | 0.00 | 0.03 | 0.03 | 87 | 1013.2 |
| 20260503183543 | 10 | 0 | 0.0 | 6.4 | 0.00 | 0.03 | 0.03 | 86 | 1013.2 |
| 20260503183105 | 10 | 0 | 0.0 | 6.4 | 0.00 | 0.03 | 0.03 | 87 | 1013.2 |
| 20260503182543 | 10 | 223 | 0.0 | 4.8 | 0.00 | 0.03 | 0.03 | 89 | 1013.1 |
| 20260503182043 | 10 | 0 | 1.6 | 4.8 | 0.00 | 0.03 | 0.03 | 90 | 1013.1 |
| 20260503181552 | 10 | 0 | 0.0 | 4.8 | 0.00 | 0.03 | 0.03 | 90 | 1013.1 |
| 20260503181044 | 10 | 176 | 1.6 | 8.0 | 0.00 | 0.03 | 0.03 | 91 | 1013.1 |
| 20260503180543 | 10 | 280 | 1.6 | 8.0 | 0.00 | 0.03 | 0.03 | 92 | 1013.1 |
| 20260503180105 | 9 | 0 | 1.6 | 4.8 | 0.00 | 0.03 | 0.03 | 93 | 1013.1 |
| 20260503175544 | 9 | 195 | 1.6 | 9.7 | 0.00 | 0.03 | 0.03 | 95 | 1013.1 |
| 20260503175045 | 9 | 227 | 1.6 | 9.7 | 0.00 | 0.03 | 0.03 | 95 | 1013.2 |
| 20260503174551 | 9 | 111 | 1.6 | 6.4 | 0.00 | 0.03 | 0.03 | 96 | 1013.1 |
| 20260503174044 | 9 | 209 | 1.6 | 4.8 | 0.00 | 0.03 | 0.03 | 96 | 1013.1 |
| 20260503173544 | 8 | 143 | 0.0 | 3.2 | 0.00 | 0.03 | 0.03 | 96 | 1013.1 |
| 20260503173144 | 9 | 0 | 0.0 | 4.8 | 0.00 | 0.03 | 0.03 | 96 | 1013.2 |
| 20260503172544 | 8 | 0 | 0.0 | 4.8 | 0.00 | 0.03 | 0.03 | 96 | 1013.1 |
| 20260503172044 | 8 | 263 | 0.0 | 1.6 | 0.00 | 0.03 | 0.03 | 96 | 1013.2 |
| 20260503171552 | 8 | 0 | 0.0 | 3.2 | 0.03 | 0.03 | 0.03 | 97 | 1013.2 |
| 20260503171045 | 8 | 263 | 0.0 | 3.2 | 0.03 | 0.03 | 0.03 | 97 | 1013.2 |
| 20260503170544 | 8 | 0 | 0.0 | 3.2 | 0.03 | 0.03 | 0.03 | 96 | 1013.2 |
| 20260503150544 | 8 | 0 | 1.6 | 3.2 | 0.00 | 0.00 | 0.00 | 97 | 1012.3 |
| 20260503131043 | 7 | 0 | 0.0 | 1.6 | 0.00 | 0.00 | 0.00 | 96 | 1011.3 |
| 20260503130554 | 7 | 0 | 0.0 | 3.2 | 0.00 | 0.00 | 0.00 | 96 | 1011.2 |
| 20260503130104 | 7 | 0 | 0.0 | 6.4 | 0.00 | 0.00 | 0.00 | 96 | 1011.1 |
| 20260503110544 | 7 | 0 | 0.0 | 3.2 | 0.00 | 0.00 | 0.00 | 96 | 1011.2 |
| 20260503100244 | 7 | 0 | 0.0 | 4.8 | 0.00 | 0.00 | 0.00 | 96 | 1011.1 |
| 20260503081556 | 7 | 310 | 1.6 | 6.4 | 0.00 | 0.00 | 0.00 | 96 | 1012.0 |
| 20260503081044 | 7 | 310 | 3.2 | 8.0 | 0.00 | 0.00 | 0.00 | 96 | 1011.9 |
| 20260503080544 | 7 | 309 | 3.2 | 8.0 | 0.00 | 0.00 | 0.00 | 96 | 1011.8 |
| 20260503072544 | 7 | 314 | 3.2 | 6.4 | 0.00 | 0.00 | 0.00 | 96 | 1012.0 |
| 20260503072044 | 7 | 310 | 3.2 | 8.0 | 0.00 | 0.00 | 0.00 | 96 | 1011.9 |
| 20260503071557 | 7 | 317 | 3.2 | 8.0 | 0.00 | 0.00 | 0.00 | 96 | 1012.0 |
| 20260503071044 | 7 | 317 | 3.2 | 8.0 | 0.00 | 0.00 | 0.00 | 96 | 1011.9 |
| 20260503070544 | 7 | 304 | 4.8 | 8.0 | 0.00 | 0.00 | 0.00 | 96 | 1012.0 |
| 20260503055044 | 7 | 317 | 4.8 | 8.0 | 0.00 | 0.00 | 0.00 | 96 | 1012.2 |
| 20260503054550 | 7 | 315 | 4.8 | 8.0 | 0.00 | 0.00 | 0.00 | 96 | 1012.2 |
| 20260503054044 | 7 | 313 | 4.8 | 12.9 | 0.00 | 0.00 | 0.00 | 96 | 1012.3 |
| 20260503053544 | 7 | 313 | 3.2 | 12.9 | 0.00 | 0.00 | 0.00 | 96 | 1012.3 |
| 20260503053053 | 7 | 313 | 6.4 | 12.9 | 0.00 | 0.00 | 0.00 | 95 | 1012.3 |
| 20260503052544 | 7 | 319 | 6.4 | 11.3 | 0.00 | 0.00 | 0.00 | 95 | 1012.2 |
| 20260503052044 | 7 | 323 | 4.8 | 11.3 | 0.00 | 0.00 | 0.00 | 96 | 1012.4 |
| 20260503051551 | 7 | 297 | 6.4 | 14.5 | 0.00 | 0.00 | 0.00 | 95 | 1012.5 |
| 20260503051043 | 7 | 303 | 6.4 | 14.5 | 0.00 | 0.00 | 0.00 | 96 | 1012.4 |
| 20260503050544 | 7 | 308 | 6.4 | 14.5 | 0.00 | 0.00 | 0.00 | 96 | 1012.4 |
| 20260503050054 | 7 | 317 | 6.4 | 12.9 | 0.00 | 0.00 | 0.00 | 96 | 1012.5 |
| 20260503045545 | 7 | 307 | 4.8 | 14.5 | 0.00 | 0.00 | 0.00 | 96 | 1012.4 |
| 20260503045045 | 7 | 301 | 6.4 | 14.5 | 0.00 | 0.00 | 0.00 | 96 | 1012.3 |
| 20260503044554 | 7 | 306 | 4.8 | 11.3 | 0.00 | 0.00 | 0.00 | 96 | 1012.3 |
| 20260503044047 | 7 | 315 | 4.8 | 14.5 | 0.00 | 0.00 | 0.00 | 96 | 1012.3 |
| 20260503043544 | 7 | 306 | 6.4 | 14.5 | 0.00 | 0.00 | 0.00 | 95 | 1012.2 |
| 20260503043051 | 7 | 311 | 6.4 | 14.5 | 0.00 | 0.00 | 0.00 | 95 | 1012.2 |
| 20260503042545 | 7 | 299 | 8.0 | 16.1 | 0.00 | 0.00 | 0.00 | 95 | 1012.2 |
| 20260503042044 | 7 | 304 | 8.0 | 16.1 | 0.00 | 0.00 | 0.00 | 95 | 1012.1 |
| 20260503041548 | 7 | 297 | 6.4 | 14.5 | 0.00 | 0.00 | 0.00 | 95 | 1012.1 |
| 20260503041047 | 7 | 317 | 6.4 | 14.5 | 0.00 | 0.00 | 0.00 | 95 | 1012.1 |
| 20260503040543 | 7 | 311 | 8.0 | 14.5 | 0.00 | 0.00 | 0.00 | 95 | 1012.1 |
| 20260503040049 | 7 | 310 | 8.0 | 14.5 | 0.00 | 0.00 | 0.00 | 95 | 1011.9 |
| 20260503035544 | 7 | 311 | 11.3 | 14.5 | 0.00 | 0.00 | 0.00 | 95 | 1011.9 |
| 20260503035045 | 7 | 313 | 8.0 | 16.1 | 0.00 | 0.00 | 0.00 | 95 | 1011.7 |
| 20260503034554 | 7 | 295 | 9.7 | 16.1 | 0.00 | 0.00 | 0.00 | 95 | 1011.8 |
| 20260503034047 | 7 | 294 | 8.0 | 14.5 | 0.00 | 0.00 | 0.00 | 95 | 1011.7 |
| 20260503033544 | 7 | 304 | 6.4 | 14.5 | 0.00 | 0.00 | 0.00 | 95 | 1011.7 |
| 20260503033051 | 7 | 302 | 6.4 | 14.5 | 0.00 | 0.00 | 0.00 | 95 | 1011.6 |
| 20260503032544 | 7 | 316 | 8.0 | 14.5 | 0.00 | 0.00 | 0.00 | 95 | 1011.6 |
| 20260503032044 | 7 | 312 | 8.0 | 14.5 | 0.00 | 0.00 | 0.00 | 95 | 1011.5 |
| 20260503031557 | 7 | 313 | 8.0 | 14.5 | 0.00 | 0.00 | 0.00 | 95 | 1011.5 |
| 20260503031044 | 7 | 290 | 6.4 | 14.5 | 0.00 | 0.00 | 0.00 | 95 | 1011.5 |
| 20260503030543 | 7 | 304 | 8.0 | 14.5 | 0.00 | 0.00 | 0.00 | 95 | 1011.5 |
| 20260503030049 | 7 | 296 | 6.4 | 12.9 | 0.00 | 0.00 | 0.00 | 95 | 1011.4 |
| 20260503025544 | 8 | 322 | 6.4 | 12.9 | 0.00 | 0.00 | 0.00 | 95 | 1011.5 |
| 20260503025045 | 8 | 292 | 6.4 | 12.9 | 0.00 | 0.00 | 0.00 | 95 | 1011.4 |
| 20260503024549 | 8 | 303 | 6.4 | 12.9 | 0.00 | 0.00 | 0.00 | 95 | 1011.3 |
| 20260503024044 | 8 | 301 | 6.4 | 12.9 | 0.00 | 0.00 | 0.00 | 94 | 1011.2 |
| 20260503023544 | 8 | 304 | 6.4 | 14.5 | 0.00 | 0.00 | 0.00 | 94 | 1011.2 |
| 20260503023057 | 8 | 316 | 6.4 | 14.5 | 0.00 | 0.00 | 0.00 | 94 | 1011.2 |
| 20260503022543 | 8 | 279 | 8.0 | 14.5 | 0.00 | 0.00 | 0.00 | 94 | 1011.1 |
| 20260503022043 | 8 | 305 | 8.0 | 16.1 | 0.00 | 0.00 | 0.00 | 94 | 1011.1 |
| 20260503021552 | 8 | 300 | 8.0 | 16.1 | 0.00 | 0.00 | 0.00 | 94 | 1011.2 |
| 20260503021044 | 8 | 311 | 8.0 | 16.1 | 0.00 | 0.00 | 0.00 | 94 | 1011.1 |
| 20260503020544 | 8 | 314 | 8.0 | 16.1 | 0.00 | 0.00 | 0.00 | 94 | 1011.1 |
| 20260503020056 | 8 | 304 | 8.0 | 16.1 | 0.00 | 0.00 | 0.00 | 94 | 1011.2 |
| 20260503015544 | 8 | 302 | 8.0 | 14.5 | 0.00 | 0.00 | 0.00 | 94 | 1011.1 |
| 20260503015044 | 8 | 301 | 8.0 | 14.5 | 0.00 | 0.00 | 0.00 | 93 | 1011.2 |
| 20260503014553 | 8 | 305 | 8.0 | 14.5 | 0.00 | 0.00 | 0.00 | 93 | 1011.3 |
| 20260503014044 | 9 | 317 | 8.0 | 14.5 | 0.00 | 0.00 | 0.00 | 94 | 1011.3 |
| 20260503013544 | 8 | 304 | 6.4 | 14.5 | 0.00 | 0.00 | 0.00 | 93 | 1011.3 |
| 20260503013050 | 9 | 311 | 6.4 | 14.5 | 0.00 | 0.00 | 0.00 | 93 | 1011.3 |
| 20260503012544 | 9 | 307 | 6.4 | 14.5 | 0.00 | 0.00 | 0.00 | 93 | 1011.4 |
| 20260503012046 | 9 | 304 | 6.4 | 14.5 | 0.00 | 0.00 | 0.00 | 93 | 1011.4 |
| 20260503011604 | 9 | 302 | 6.4 | 12.9 | 0.00 | 0.00 | 0.00 | 93 | 1011.4 |
| 20260503011043 | 9 | 309 | 6.4 | 14.5 | 0.00 | 0.00 | 0.00 | 93 | 1011.4 |
| 20260503010544 | 9 | 298 | 8.0 | 14.5 | 0.00 | 0.00 | 0.00 | 93 | 1011.4 |
| 20260503010052 | 9 | 304 | 8.0 | 16.1 | 0.00 | 0.00 | 0.00 | 93 | 1011.4 |
| 20260503005547 | 9 | 303 | 8.0 | 16.1 | 0.00 | 0.00 | 0.00 | 93 | 1011.4 |
| 20260503005045 | 9 | 323 | 8.0 | 16.1 | 0.00 | 0.00 | 0.00 | 92 | 1011.4 |
| 20260503004553 | 9 | 288 | 6.4 | 16.1 | 0.00 | 0.00 | 0.00 | 92 | 1011.4 |
| 20260503004046 | 10 | 315 | 8.0 | 16.1 | 0.00 | 0.00 | 0.00 | 92 | 1011.4 |
| 20260503003544 | 10 | 306 | 6.4 | 14.5 | 0.00 | 0.00 | 0.00 | 92 | 1011.5 |
| 20260503003106 | 10 | 316 | 8.0 | 14.5 | 0.00 | 0.00 | 0.00 | 92 | 1011.6 |
| 20260503002544 | 10 | 319 | 8.0 | 17.7 | 0.00 | 0.00 | 0.00 | 91 | 1011.6 |
| 20260503002044 | 10 | 309 | 9.7 | 17.7 | 0.00 | 0.00 | 0.00 | 91 | 1011.6 |
| 20260503001552 | 10 | 298 | 8.0 | 16.1 | 0.00 | 0.00 | 0.00 | 91 | 1011.6 |
| 20260503001043 | 10 | 320 | 8.0 | 16.1 | 0.00 | 0.00 | 0.00 | 90 | 1011.6 |